Location: Bergnerzell
(49.1816°N, 10.2565°E)
Time: 04:39:04
(UTC+00:00)

IDEFIX/ARIANE 42P - Pass Details

Date: 16 August 2024
Orbit: 782 x 799 km, 98.5° (Epoch: 08 September)

Event Time Altitude Azimuth Distance (km) Brightness Sun altitude
Rises 01:23:02 0° 13° (NNE) 3,285 7.0 -21.9°
Reaches altitude 10° 01:25:21 10° 12° (NNE) 2,354 6.0 -21.7°
Maximum altitude 01:30:32 77° 288° (WNW) 813 2.5 -21.2°
Enters shadow 01:32:06 46° 212° (SSW) 1,051 2.7 -21.1°
